Pontiac, MI

3:12 PM EST on January 19, 2018 (GMT -0500)
Oakland County International

Weather History for KPTK - March, 2013

Change the Weather History Date:

Tuesday, March 19, 2013

  Actual Average Record
Temperature  
Mean Temperature 27 °F -  
Max Temperature 33 °F 41 °F 75 °F (2012)
Min Temperature 21 °F 24 °F 21 °F (1997)
Degree Days  
Heating Degree Days 38    
Moisture  
Dew Point 18 °F    
Average Humidity 73    
Maximum Humidity 89    
Minimum Humidity 59    
Precipitation  
Precipitation 0.00 in - - ()
Sea Level Pressure  
Sea Level Pressure 29.75 in    
Wind  
Wind Speed 16 mph (WSW)    
Max Wind Speed 23 mph    
Max Gust Speed 33 mph    
Visibility 5 miles    
Events Snow    
Averages and records for this station are not official NWS values.
T = Trace of Precipitation, MM = Missing Value Source: NWS Daily Summary

Daily Weather History Graph

Daily Weather History Graph

Search for Another Location

Airport or City:

Trip Planner

Search our weather history database for the weather conditions in past years. The results will help you decide how hot, cold, wet, or windy it might be!

Date:

Astronomy

Mar. 19, 2013 Rise Set
Actual Time 7:38 AM EDT 7:45 PM EDT
Civil Twilight 7:10 AM EDT 8:13 PM EDT
Nautical Twilight 6:37 AM EDT 8:46 PM EDT
Astronomical Twilight 6:03 AM EDT 9:19 PM EDT
Moon 12:20 PM EDT 2:38 AM EDT
Length of Visible Light 13h 03m
Length of Day
12h 06m
Waxing Crescent, 49% of the Moon is Illuminated
Mar 19
Waxing Crescent
Mar 19
First Quarter
Mar 27
Full
Apr 3
Last Quarter
Apr 10
New

Hourly Weather History & Observations

Time (EDT) Temp. Windchill Dew Point Humidity Pressure Visibility Wind Dir Wind Speed Gust Speed Precip Events Conditions
12:53 AM 33.1 °F 23.0 °F 28.9 °F 85% 29.62 in 10.0 mi WSW 15.0 mph 25.3 mph N/A   Overcast
1:16 AM 33.8 °F 24.8 °F 28.4 °F 81% 29.57 in 10.0 mi WSW 12.7 mph - N/A   Overcast
1:53 AM 33.1 °F 26.1 °F 30.0 °F 89% 29.60 in 4.0 mi SW 8.1 mph - 0.00 in Snow Light Snow
2:02 AM 33.8 °F 27.7 °F 30.2 °F 87% 29.57 in 3.0 mi SW 6.9 mph - 0.00 in Snow Light Snow
2:23 AM 33.8 °F 27.0 °F 30.2 °F 87% 29.57 in 7.0 mi SW 8.1 mph - 0.00 in Snow Light Snow
2:48 AM 33.8 °F 24.3 °F 28.4 °F 81% 29.58 in 6.0 mi WSW 13.8 mph 20.7 mph 0.00 in Snow Light Snow
2:53 AM 33.1 °F 21.2 °F 28.0 °F 82% 29.61 in 8.0 mi West 20.7 mph 27.6 mph 0.00 in Snow Light Snow
3:21 AM 30.2 °F 19.3 °F 23.0 °F 75% 29.59 in 10.0 mi WSW 15.0 mph 31.1 mph 0.00 in   Overcast
3:53 AM 30.0 °F 18.3 °F 24.1 °F 79% 29.63 in 10.0 mi WSW 17.3 mph 23.0 mph 0.00 in   Overcast
4:53 AM 27.0 °F 14.3 °F 19.9 °F 75% 29.65 in 8.0 mi West 17.3 mph 27.6 mph 0.00 in Snow Light Snow
5:53 AM 25.0 °F 13.1 °F 18.0 °F 75% 29.68 in 6.0 mi WSW 13.8 mph - 0.00 in Snow Light Snow
6:41 AM 24.8 °F 13.4 °F 17.6 °F 74% 29.66 in 2.5 mi WSW 12.7 mph - 0.00 in Snow Light Snow
6:53 AM 24.1 °F 12.5 °F 18.0 °F 77% 29.70 in 3.0 mi WSW 12.7 mph - 0.00 in Snow Light Snow
7:20 AM 23.0 °F 9.6 °F 17.6 °F 80% 29.67 in 2.5 mi WSW 16.1 mph 20.7 mph 0.00 in Snow Light Snow
7:28 AM 23.0 °F 10.6 °F 17.6 °F 80% 29.68 in 5.0 mi WSW 13.8 mph 20.7 mph 0.00 in Snow Light Snow
7:53 AM 23.0 °F 8.3 °F 16.0 °F 74% 29.72 in 6.0 mi WSW 19.6 mph 27.6 mph 0.00 in Snow Light Snow
8:53 AM 21.9 °F 9.8 °F 15.1 °F 75% 29.72 in 6.0 mi WSW 12.7 mph 29.9 mph 0.00 in   Haze
9:53 AM 23.0 °F 11.1 °F 14.0 °F 68% 29.72 in 7.0 mi WSW 12.7 mph 20.7 mph 0.00 in Snow Light Snow
10:14 AM 21.2 °F 6.8 °F 15.8 °F 80% 29.69 in 4.0 mi WSW 17.3 mph 24.2 mph 0.00 in Snow Light Snow
10:22 AM 21.2 °F 8.3 °F 15.8 °F 80% 29.69 in 2.0 mi WSW 13.8 mph 27.6 mph 0.00 in Snow Light Snow
10:40 AM 21.2 °F 6.0 °F 14.0 °F 74% 29.69 in 6.0 mi WSW 19.6 mph 28.8 mph 0.00 in Snow Light Snow
10:50 AM 23.0 °F 7.2 °F 14.0 °F 68% 29.70 in 6.0 mi WSW 23.0 mph 28.8 mph 0.00 in Snow Light Snow
10:53 AM 23.0 °F 9.2 °F 12.9 °F 65% 29.73 in 5.0 mi WSW 17.3 mph 28.8 mph 0.00 in Snow Light Snow
11:28 AM 23.0 °F 9.6 °F 14.0 °F 68% 29.71 in 2.5 mi WSW 16.1 mph 25.3 mph 0.00 in Snow Light Snow
11:45 AM 21.2 °F 6.8 °F 15.8 °F 80% 29.71 in 3.0 mi West 17.3 mph 27.6 mph 0.00 in Snow Light Snow
11:53 AM 23.0 °F 10.6 °F 15.1 °F 72% 29.75 in 3.0 mi WSW 13.8 mph 26.5 mph 0.00 in Snow Light Snow
11:59 AM 23.0 °F 7.6 °F 15.8 °F 74% 29.72 in 1.8 mi WSW 21.9 mph 27.6 mph 0.00 in Snow Light Snow
12:39 PM 23.0 °F 9.6 °F 15.8 °F 74% 29.73 in 2.0 mi West 16.1 mph 27.6 mph 0.00 in Snow Light Snow
12:53 PM 23.0 °F 10.1 °F 16.0 °F 74% 29.76 in 2.0 mi WSW 15.0 mph 25.3 mph 0.00 in Snow Light Snow
1:53 PM 24.1 °F 9.4 °F 16.0 °F 71% 29.77 in 2.5 mi WSW 20.7 mph 29.9 mph 0.00 in Snow Light Snow
2:17 PM 24.8 °F 10.7 °F 14.0 °F 64% 29.74 in 2.5 mi West 19.6 mph 28.8 mph 0.00 in   Overcast
2:48 PM 24.8 °F 10.0 °F 14.0 °F 64% 29.75 in 2.5 mi WSW 21.9 mph 28.8 mph 0.00 in Snow Light Snow
2:53 PM 24.1 °F 10.1 °F 15.1 °F 69% 29.78 in 2.5 mi WSW 18.4 mph 28.8 mph 0.00 in Snow Light Snow
3:09 PM 24.8 °F 9.6 °F 12.2 °F 59% 29.75 in 2.5 mi WSW 23.0 mph 32.2 mph 0.00 in Snow Light Snow
3:17 PM 23.0 °F 8.7 °F 14.0 °F 68% 29.75 in 2.5 mi West 18.4 mph 32.2 mph 0.00 in Snow Light Snow
3:30 PM 23.0 °F 7.2 °F 14.0 °F 68% 29.76 in 2.5 mi West 23.0 mph 33.4 mph 0.00 in Snow Light Snow
3:47 PM 23.0 °F 8.0 °F 15.8 °F 74% 29.77 in 1.0 mi West 20.7 mph 29.9 mph 0.00 in Snow Light Snow
3:53 PM 23.0 °F 8.3 °F 16.0 °F 74% 29.81 in 1.0 mi West 19.6 mph 28.8 mph 0.00 in Snow Light Snow
4:00 PM 23.0 °F 8.0 °F 15.8 °F 74% 29.78 in 2.5 mi WSW 20.7 mph 28.8 mph 0.00 in Snow Light Snow
4:04 PM 23.0 °F 8.7 °F 15.8 °F 74% 29.78 in 5.0 mi WSW 18.4 mph 27.6 mph 0.00 in Snow Light Snow
4:19 PM 24.8 °F 10.7 °F 15.8 °F 69% 29.78 in 8.0 mi WSW 19.6 mph 28.8 mph 0.00 in Snow Light Snow
4:48 PM 24.8 °F 10.3 °F 15.8 °F 69% 29.79 in 6.0 mi West 20.7 mph 29.9 mph 0.00 in Snow Light Snow
4:53 PM 24.1 °F 10.1 °F 15.1 °F 69% 29.83 in 8.0 mi WSW 18.4 mph 28.8 mph 0.00 in Snow Light Snow
5:14 PM 24.8 °F 10.3 °F 15.8 °F 69% 29.80 in 2.0 mi West 20.7 mph 29.9 mph 0.00 in Snow Light Snow
5:26 PM 24.8 °F 10.7 °F 15.8 °F 69% 29.81 in 8.0 mi West 19.6 mph 28.8 mph 0.00 in Snow Light Snow
5:53 PM 24.1 °F 9.4 °F 16.0 °F 71% 29.86 in 6.0 mi West 20.7 mph 26.5 mph 0.00 in Snow Light Snow
6:53 PM 24.1 °F 10.6 °F 15.1 °F 69% 29.88 in 9.0 mi West 17.3 mph 29.9 mph 0.00 in Snow Light Snow
7:08 PM 24.8 °F 11.1 °F 15.8 °F 69% 29.84 in 6.0 mi West 18.4 mph 27.6 mph 0.00 in Snow Light Snow
7:33 PM 24.8 °F 11.9 °F 15.8 °F 69% 29.85 in 5.0 mi West 16.1 mph 26.5 mph 0.00 in Snow Light Snow
7:53 PM 24.1 °F 9.8 °F 16.0 °F 71% 29.90 in 7.0 mi West 19.6 mph 24.2 mph 0.00 in Snow Light Snow
8:07 PM 24.8 °F 12.9 °F 15.8 °F 69% 29.85 in 7.0 mi West 13.8 mph 19.6 mph 0.00 in Snow Light Snow
8:53 PM 25.0 °F 11.7 °F 16.0 °F 69% 29.91 in 9.0 mi West 17.3 mph 26.5 mph 0.00 in Snow Light Snow
9:04 PM 24.8 °F 11.9 °F 17.6 °F 74% 29.87 in 9.0 mi West 16.1 mph 26.5 mph 0.00 in Snow Light Snow
9:34 PM 24.8 °F 11.5 °F 17.6 °F 74% 29.88 in 9.0 mi West 17.3 mph - 0.00 in Snow Light Snow
9:53 PM 25.0 °F 13.6 °F 17.1 °F 72% 29.92 in 9.0 mi West 12.7 mph 21.9 mph 0.00 in Snow Light Snow
10:53 PM 25.0 °F 13.6 °F 17.1 °F 72% 29.92 in 9.0 mi West 12.7 mph - 0.00 in Snow Light Snow
11:53 PM 25.0 °F 13.6 °F 16.0 °F 69% 29.92 in 10.0 mi West 12.7 mph - 0.00 in   Scattered Clouds